Temp
8 8 8 8 9 9 10 10 11 11 12 12 11 12 12 12 12 12 12 11 11 11
8 8 8 8 8 8 9 9 10 10 11 11 11 11 11 10 10 10 11 11 10 10
8 8 7 7 7 7 8 10 9 10 10 10 10 10 10 10 10 10 10 10 10 10
6 6 6 6 6 8 8 8 9 8 9 9 8 9 10 9 9 9 10 9 9 9
5 5 6 6 6 6 7 7 7 7 8 8 8 8 9 8 8 8 9 8 8 8
3 3 3 3 4 5 5 5 6 6 6 6 6 6 7 6 5 5 5 6 4 6
2 2 2 2 3 3 3 4 4 4 3 4 4 4 4 4 3 3 5 5 4 4
2 2 2 2 3 2 2 2 3 3 2 2 2 2 3 2 2 2 1 0 2 2
1 2 2 2 2 1 1 2 2 1 1 2 1 2 1 -0 -0 0 2 2 2 1
1 1 1 1 -0 0 0 0 -0 -1 -1 -1 -0 0 1 1 1 0 0 -0 -0 -0
1 0 -0 -0 -1 -1 -1 -1 -1 -1 -1 -1 -0 0 0 0 -0 -1 -2 -3 -3 -3
-0 -1 -1 -1 -1 -1 -1 -1 -1 -1 -1 -1 -1 -1 -1 -1 -1 -2 -3 -3 -4 -4
-1 -1 -1 -1 -2 -1 -2 -2 -2 -2 -2 -2 -2 -1 -1 -1 -2 -3 -3 -4 -4 -5
-2 -2 -1 -1 -1 -1 -1 -2 -2 -3 -4 -4 -4 -4 -4 -5 -6 -6 -6 -5 -5 -5
Height
1434 1436 1438 1439 1439 1440 1441 1443 1444 1446 1449 1452 1454 1455 1457 1462 1464 1466 1467 1471 1471 1473
1431 1433 1434 1435 1435 1435 1435 1438 1439 1440 1442 1447 1446 1449 1451 1455 1458 1461 1462 1463 1463 1463
1429 1430 1430 1432 1432 1433 1433 1434 1434 1435 1439 1440 1434 1440 1445 1447 1449 1453 1454 1455 1456 1454
1428 1429 1429 1430 1431 1431 1431 1432 1432 1434 1435 1434 1434 1438 1440 1442 1445 1447 1449 1449 1448 1447
1429 1429 1429 1429 1429 1429 1430 1430 1431 1432 1433 1433 1435 1436 1436 1439 1439 1443 1444 1445 1442 1441
1431 1431 1430 1430 1429 1429 1429 1430 1430 1430 1431 1431 1433 1434 1434 1435 1438 1438 1439 1435 1437 1435
1435 1434 1432 1431 1429 1431 1431 1431 1431 1430 1431 1431 1431 1434 1434 1434 1436 1436 1433 1434 1437 1433
1439 1436 1434 1432 1432 1431 1431 1430 1430 1430 1432 1431 1431 1434 1430 1430 1434 1435 1435 1433 1430 1429
1442 1440 1438 1437 1436 1434 1433 1431 1431 1431 1430 1429 1430 1429 1429 1433 1433 1432 1432 1430 1429 1429
1443 1441 1439 1437 1436 1435 1434 1432 1432 1431 1431 1431 1431 1431 1431 1431 1431 1430 1428 1427 1426 1425
1444 1443 1441 1439 1438 1437 1436 1435 1434 1433 1432 1431 1431 1430 1430 1429 1427 1426 1425 1425 1424 1422
1444 1442 1441 1439 1438 1437 1435 1435 1434 1432 1432 1431 1430 1429 1428 1427 1425 1424 1423 1423 1423 1421
1444 1442 1440 1438 1437 1436 1435 1434 1434 1433 1432 1431 1430 1429 1427 1425 1423 1422 1422 1421 1420 1419
1442 1440 1439 1437 1436 1435 1434 1434 1433 1432 1432 1430 1429 1427 1425 1424 1423 1421 1421 1419 1417 1416
Wind_Speed
17 19 23 22 25 27 27 27 25 28 31 37 35 30 25 26 28 28 30 32 33 35
15 16 18 20 21 22 23 23 24 23 24 32 29 28 21 22 23 26 29 31 32 35
14 17 16 20 19 16 18 23 16 17 26 23 17 17 23 19 23 26 30 33 37 34
6 10 10 10 10 17 13 14 15 17 19 17 17 19 20 21 22 24 26 30 29 23
9 7 3 4 4 4 7 8 9 9 11 12 13 16 14 12 13 21 26 15 16 17
17 14 13 13 13 8 9 7 7 7 5 7 5 10 14 9 5 4 6 9 11 12
14 13 13 13 10 9 9 8 5 4 5 4 2 0 3 4 5 6 8 10 14 15
13 11 11 10 8 7 7 5 4 5 5 4 4 6 7 9 11 13 14 13 14 13
8 7 5 3 3 5 6 6 5 5 8 10 11 13 11 9 8 8 8 8 9 8
10 10 9 9 9 8 6 5 5 4 3 4 4 5 5 5 5 6 8 8 9 10
8 7 7 6 6 5 5 5 5 4 3 3 4 5 6 6 5 5 7 9 10 12
8 8 8 8 8 8 7 6 5 5 5 4 6 6 8 6 4 4 7 7 8 13
9 9 9 8 8 7 6 6 6 6 5 5 6 7 8 7 7 8 9 7 7 6
9 9 9 7 6 6 5 5 5 6 8 10 11 11 10 10 12 12 12 10 10 12
Wind_Direction
238 249 244 250 252 253 251 250 244 239 240 241 241 242 238 242 245 255 257 257 256 258
232 241 244 248 251 253 250 243 238 231 231 233 240 241 251 243 250 254 259 265 269 268
226 234 240 247 246 246 243 234 232 225 230 249 218 228 237 247 254 257 262 261 267 270
228 236 234 229 230 239 252 253 248 249 247 269 264 258 262 264 262 267 263 261 263 265
113 112 110 159 163 205 248 239 236 239 237 232 239 247 239 220 220 249 255 253 257 262
102 103 103 100 101 108 117 140 181 171 177 191 205 242 222 201 224 247 266 279 302 283
66 71 85 91 92 94 86 94 93 104 88 114 113 327 276 292 296 300 304 297 297 303
23 25 33 43 53 50 46 43 23 355 342 353 334 317 332 326 306 291 284 295 312 314
5 15 15 31 12 9 357 10 352 309 287 290 292 295 305 291 284 290 294 300 293 297
358 2 7 13 15 12 17 18 7 10 5 322 336 328 321 304 307 320 327 327 326 320
345 349 352 353 351 348 341 335 328 333 337 330 352 357 354 348 344 355 351 350 349 336
337 333 332 332 333 335 337 341 350 355 359 357 355 353 353 351 353 352 344 353 354 337
330 324 325 325 331 342 345 350 356 4 9 356 350 348 349 358 360 351 349 351 339 326
318 318 323 330 335 340 344 352 8 17 6 350 342 347 353 8 3 359 348 347 339 328